Regional Weather Roundup
Issued by NWS

Home | Current Version | Previous Version | Text Only | Print | Product List | Glossary On
Versions: 1 2 3 4 5 6 7 8 9 10 11 12 13 14 15 16 17 18 19 20 21 22 23 24 25 26 27 28 29 30 31 32 33 34 35 36 37 38 39 40 41 42 43 44 45 46 47 48 49 50
000
ASUS43 KMPX 231501
RWRMN
WEATHER ROUNDUP FOR MINNESOTA
NATIONAL WEATHER SERVICE TWIN CITIES/CHANHASSEN MN
1000 AM CDT MON APR 23 2018


NOTE: "FAIR" INDICATES FEW OR NO CLOUDS BELOW 12,000 FEET WITH NO
SIGNIFICANT WEATHER AND/OR OBSTRUCTIONS TO VISIBILITY. N/A MEANS
CURRENT SKY AND/OR WEATHER CONDITIONS ARE NOT AVAILABLE.

MNZ060>063-068>070-231600-
   Twin Cities Metro

CITY           SKY/WX    TMP DP  RH WIND       PRES   REMARKS
TWIN CITIES    FAIR      57  33  40 SW3       30.24F
ST PAUL        FAIR      54  35  48 E5        30.25F
CRYSTAL        FAIR      57  33  40 MISG      30.23F
BLAINE         SUNNY     59  32  36 S7        30.24F
LAKEVILLE      FAIR      54  36  50 S5        30.24F
EDEN PRAIRIE   FAIR      57  34  41 S7        30.23F
SOUTH ST PAUL  FAIR      56  34  43 CALM      30.24F
LAKE ELMO      FAIR      55  36  47 S7        30.25F
$$
MNZ001>005-007-008-013>017-022>024-027-028-231600-
   Northwest Minnesota

CITY           SKY/WX    TMP DP  RH WIND       PRES   REMARKS
BEMIDJI        FAIR      56  37  48 SW9       30.17S
HALLOCK        FAIR      54  37  54 N13G18    30.18F
ROSEAU         FAIR      52  41  66 W8        30.17R
WARROAD        FAIR      54  39  58 W9G16     30.16S
THIEF RVR FALL FAIR      51  38  60 NW8       30.19F
CROOKSTON      FAIR      48  41  76 N3        30.20S
FOSSTON        FAIR      52  37  58 W8        30.20S
DETROIT LAKES  FAIR      54  37  54 W7        30.21F
MOORHEAD       FAIR      48  39  71 S8        30.20F
PARK RAPIDS    FAIR      57  38  48 W9        30.19F
MAHNOMEN       FAIR      51  40  64 SW10      30.19S
$$
MNZ006-009>011-018-025>026-231600-
   North Central Minnesota

CITY           SKY/WX    TMP DP  RH WIND       PRES   REMARKS
BAUDETTE       FAIR      55  38  52 NW8       30.14S
FLAG ISLAND    FAIR      45  34  65 NW10      30.14R
INTL FALLS     FAIR      53  38  56 SW9       30.13F
WASKISH        PTSUNNY   50  39  66 SW14      30.17S
BIG FORK       FAIR      55  37  50 W6        30.16F
LONGVILLE      FAIR      52  36  54 SW5       30.20S
GRAND RAPIDS   PTSUNNY   54  37  52 SW8       30.21F
CRANE LAKE     CLOUDY    50  34  53 SW6       30.17F
ORR            CLOUDY    54  34  47 SW6       30.13F
COOK           FAIR      54  37  54 W12       30.17F
WALKER         PTSUNNY   56  37  47 SW12      30.18F
$$
MNZ012-019>021-037-231600-
   Northeast Minnesota

CITY           SKY/WX    TMP DP  RH WIND       PRES   REMARKS
DULUTH         FAIR      57  38  48 W15       30.21F
ELY            CLOUDY    55  34  44 SW10      30.16F
HIBBING        FAIR      55  33  43 VRB6      30.18F
EVELETH        FAIR      55  34  45 SW13      30.19F
DULUTH HARBOR  FAIR      46  36  66 CALM      30.22F
TWO HARBORS    FAIR      63  43  48 SW13G20   30.19S
SILVER BAY     FAIR      61  34  36 SW6       30.17F
GRAND MARAIS     N/A     38  29  70 SW10      30.20F
G MARAIS ARPRT FAIR      54  32  43 SW7       30.18F
$$
MNZ029>031-032-039>041-046>048-054>057-064-231600-
   West Central Minnesota

CITY           SKY/WX    TMP DP  RH WIND       PRES   REMARKS
FERGUS FALLS   FAIR      54  39  58 S6        30.20S
WHEATON        SUNNY     52  39  62 SE5       30.23S
MORRIS         SUNNY     54  43  66 S8        30.21F
ALEXANDRIA     FAIR      58  38  47 SW8       30.23S
ELBOW LAKE     FAIR      53  40  63 S8        30.22F
WADENA         FAIR      54  39  58 SW7       30.21S
GLENWOOD       FAIR      55  39  54 SW7       30.23S
APPLETON       SUNNY     54  39  58 SE6       30.22S
BENSON         SUNNY     54  39  58 S5        30.24F
ORTONVILLE     SUNNY     52  39  62 SE3       30.21F
MADISON        SUNNY     54  43  66 S3        30.21F
WILLMAR        FAIR      54  43  66 SE6       30.25F
$$
MNZ033>034-036-042>043-049>051-058-059-231600-
   Central Minnesota

CITY           SKY/WX    TMP DP  RH WIND       PRES   REMARKS
ST CLOUD       FAIR      52  42  69 SE5       30.24S
SAUK CENTRE    FAIR      54  40  58 S5        30.23F
PAYNESVILLE    FAIR      55  42  60 S5        30.24S
AITKIN         FAIR      55  36  47 SW8       30.20F
PINE RIVER     FAIR      55  37  50 SW6       30.23F
BRAINERD       FAIR      56  35  45 W9        30.22F
STAPLES        FAIR      57  36  44 W6        30.21S
LONG PRAIRIE   FAIR      54  37  54 S8        30.23S
LITTLE FALLS   FAIR      52  32  46 S6        30.23S
LITCHFIELD     FAIR      55  39  54 CALM      30.24S
BUFFALO        FAIR      54  35  48 S5        30.25S
MAPLE LAKE     FAIR      55  38  52 S5        30.25S
HUTCHINSON     FAIR      53  40  62 S5        30.24F
$$
MNZ037-044-045-052-053-231600-
   East Central Minnesota

CITY           SKY/WX    TMP DP  RH WIND       PRES   REMARKS
PRINCETON      FAIR      59  39  47 CALM      30.24F
MORA           FAIR      50  37  62 S3        30.26S
CAMBRIDGE      FAIR      57  37  47 SW6       30.24F
RUSH CITY      FAIR      54  35  48 S3        30.25S
MOOSE LAKE     FAIR      54  36  50 S5        30.21F
HINCKLEY       FAIR      54  41  62 S6        30.25S
CLOQUET        FAIR      57  34  41 SW12      30.21F
MCGREGOR       FAIR      55  36  47 W9        30.22F
$$
MNZ071>073-080-081-089-090-097-098-231600-
   Southwest Minnesota

CITY           SKY/WX    TMP DP  RH WIND       PRES   REMARKS
MONTEVIDEO     SUNNY     55  39  54 SW5       30.22F
GRANITE FALLS  SUNNY     52  44  73 SE6       30.24S
CANBY          SUNNY     51  40  68 CALM      30.22F
MARSHALL       SUNNY     51  40  65 S7        30.23S
REDWOOD FALLS  SUNNY     49  42  77 S6        30.23S
OLIVIA         SUNNY     54  45  71 S5        30.23S
PIPESTONE      SUNNY    N/A N/A N/A S5        30.21F
WINDOM         SUNNY     54  32  43 S3        30.23F
WORTHINGTON    SUNNY     52  39  61 S7        30.23F
JACKSON        SUNNY     52  37  58 S5        30.24S
TRACY          SUNNY     52  40  64 S9        30.22S
SLAYTON        SUNNY     45  40  83 S3        30.23F
$$
MNZ065>067-074>077-082>085-091>093-231600-
   South Central Minnesota

CITY           SKY/WX    TMP DP  RH WIND       PRES   REMARKS
MANKATO        FAIR      53  37  54 S6        30.24F
NEW ULM        SUNNY     52  39  62 SW6       30.23F
ST JAMES       SUNNY     46  39  76 S5        30.25F
FAIRMONT       SUNNY     45  37  73 S5        30.24F
GLENCOE        FAIR      52  39  60 S5        30.24S
OWATONNA       FAIR      55  36  47 SE8       30.24F
WASECA         FAIR      55  36  47 S6        30.25F
ALBERT LEA     FAIR      54  30  40 SE5       30.24F
$$
MNZ078>079-086>088-094>096-231600-
   Southeast Minnesota

CITY           SKY/WX    TMP DP  RH WIND       PRES   REMARKS
ROCHESTER      FAIR      53  36  52 SE8       30.26F
RED WING       FAIR      54  30  40 SE3       30.24F
STANTON        FAIR      56  35  43 S6        30.23F
DODGE CENTER   FAIR      54  34  47 SE6       30.25F
WINONA         FAIR      54  34  47 SE3       30.25S
AUSTIN         FAIR      52  36  54 SE6       30.25S
PRESTON        FAIR      49  28  44 E5        30.26F
$$
ABBREVIATIONS USED IN REMARKS
   TC - TEMPERATURES IN CELSIUS
  WCI - WIND CHILL INDEX
   HX - HEAT INDEX
  VSB - VISIBILITY
$$




USA.gov is the U.S. government's official web portal to all federal, state and local government web resources and services.